Flag for Uruguay Weather past 2 weeks in Minas, Uruguay

Now
48 °F

Passing clouds.


Feels Like: 43 °F
Forecast: 40 / 63 °F
Wind: 12 mph from South

Location: Capitan Corbeta

Current Time: Oct 1, 2014 at 9:07:40 PM

Latest Report: Oct 1, 2014 at 8:00 PM


Visibility: N/A

Pressure: 30.36 "Hg

Humidity: 76%

Dew point: 41 °F

Location of MinasLocation

Historic Weather in Minas — Graph

°F

Minas temperature yesterday

Maximum temperature yesterday: 72 °F (at 1:00 PM)
Minimum temperature yesterday: 43 °F (at 4:00 AM)
Average temperature yesterday: 58 °F

Past Weeks' High & Low Weather Summary

 TemperatureHumidityPressure
High75 °F (Sep 25, 2:00 PM)100% (Sep 19, 8:00 AM)30.36 "Hg (Sep 19, 8:00 AM)
Low43 °F (Sep 27, 12:00 AM)30% (Sep 27, 2:00 PM)29.62 "Hg (Sep 25, 6:00 PM)
Average58 °F76%30.00 "Hg
* Reported Sep 16 8:00 PM — Oct 1 8:00 PM, Minas, Weather by CustomWeather, © 2014

Note: Actual official high and low records may vary slightly from our data, if they occured in-between our weather recording intervals... More about our weather records

Advertising

Minas weather history for previous 24 hours

 ConditionsComfort  
Time TempWeatherWind HumidityBarometerVisibility
8:00 PM
Oct 1
48 °FPassing clouds.12 mph76%30.36 "HgN/A
7:00 PM50 °FPassing clouds.14 mph71%30.33 "HgN/A
6:00 PM52 °FPassing clouds.17 mph67%30.33 "HgN/A
5:00 PM54 °FScattered clouds.20 mph67%30.30 "HgN/A
4:00 PM55 °FCool.No wind67%30.30 "HgN/A
3:00 PM55 °FPartly sunny.18 mph63%30.27 "HgN/A
2:00 PM57 °FScattered clouds.20 mph63%30.27 "HgN/A
1:00 PM57 °FBroken clouds.18 mph63%30.24 "HgN/A
12:00 PM55 °FMostly cloudy.21 mph77%30.24 "HgN/A
11:00 AM57 °FMostly cloudy.16 mph77%30.21 "HgN/A
10:00 AM55 °FOvercast.14 mph82%30.21 "HgN/A
9:00 AM55 °FOvercast.15 mph88%30.18 "HgN/A
8:00 AM55 °FOvercast.13 mph88%30.18 "HgN/A
7:00 AM55 °FPartly sunny.17 mph88%30.15 "HgN/A
6:00 AM55 °FScattered clouds.9 mph94%30.12 "Hg4 mi
5:00 AM54 °FPassing clouds.No wind88%30.07 "HgN/A
4:00 AM54 °FPassing clouds.No wind88%30.07 "HgN/A
3:00 AM55 °FPassing clouds.5 mph88%30.07 "HgN/A
1:00 AM55 °FPassing clouds.5 mph88%30.09 "HgN/A
12:00 AM57 °FPassing clouds.3 mph88%30.07 "HgN/A
11:00 PM
Sep 30
57 °FPassing clouds.5 mph82%30.07 "HgN/A
9:00 PM57 °FPassing clouds.5 mph82%30.04 "HgN/A
Weather by CustomWeather, © 2014

See weather overviewHow to use our weather pages